Weather History for KMKL - December, 2013

Change the Weather History Date:

Saturday, December 14, 2013

  Actual Average Record
Temperature  
Mean Temperature 40 °F 41 °F  
Max Temperature 45 °F 51 °F 77 °F (1984)
Min Temperature 35 °F 31 °F 11 °F (2010)
Degree Days  
Heating Degree Days 25 24  
Month to date heating degree days 351 316  
Since 1 July heating degree days 1141 983  
Cooling Degree Days 0 0  
Month to date cooling degree days 4 0  
Year to date cooling degree days 1596 1697  
Moisture  
Dew Point 37 °F    
Average Humidity 86    
Maximum Humidity 96    
Minimum Humidity 76    
Precipitation  
Precipitation 0.66 in 0.18 in 2.76 in (1951)
Month to date precipitation 3.20 2.59  
Year to date precipitation 56.77 50.51  
Snow  
Snow 0.00 in 0.00 in T in (1985)
Month to date snowfall T 0.0  
Since 1 July snowfall T 0.1  
Snow Depth 0.00 in    
Sea Level Pressure  
Sea Level Pressure 29.91 in    
Wind  
Wind Speed 10 mph (WSW)    
Max Wind Speed 20 mph    
Max Gust Speed 23 mph    
Visibility 8 miles    
Events Rain    
T = Trace of Precipitation, MM = Missing Value Source: NWS Daily Summary

Daily Weather History Graph

Daily Weather History Graph

Search for Another Location

Airport or City:

Trip Planner

Search our weather history database for the weather conditions in past years. The results will help you decide how hot, cold, wet, or windy it might be!

Date:

Astronomy

Dec. 14, 2013 Rise Set
Actual Time 6:57 AM CST 4:43 PM CST
Civil Twilight 6:28 AM CST 5:12 PM CST
Nautical Twilight 5:57 AM CST 5:43 PM CST
Astronomical Twilight 5:26 AM CST 6:15 PM CST
Moon 3:02 PM CST (12/14) 4:21 AM CST (12/14)
Length of Visible Light 10h 43m
Length of Day
9h 46m
Waxing Gibbous, 94% of the Moon is Illuminated
Dec 14
Waxing Gibbous
Dec 17
Full
Dec 25
Last Quarter
Jan 1
New
Jan 7
First Quarter

Hourly Weather History & Observations

Time (CST) Temp. Windchill Dew Point Humidity Pressure Visibility Wind Dir Wind Speed Gust Speed Precip Events Conditions
12:53 AM 39.9 °F 36.7 °F 37.0 °F 89% 29.93 in 4.0 mi Variable 4.6 mph - 0.20 in Rain Rain
1:53 AM 39.9 °F 33.4 °F 37.0 °F 89% 29.91 in 5.0 mi SSE 10.4 mph - 0.14 in Rain Rain
2:53 AM 42.1 °F 36.1 °F 37.9 °F 85% 29.83 in 10.0 mi SSE 10.4 mph 17.3 mph 0.09 in Rain Light Rain
3:51 AM 42.8 °F 37.5 °F 39.2 °F 87% 29.84 in 6.0 mi South 9.2 mph - 0.23 in Rain Rain
3:53 AM 42.1 °F 36.6 °F 39.0 °F 89% 29.84 in 6.0 mi South 9.2 mph - 0.23 in Rain Light Rain
4:51 AM 42.8 °F 37.5 °F 39.2 °F 87% 29.82 in 10.0 mi South 9.2 mph - 0.01 in   Overcast
4:53 AM 42.1 °F 37.7 °F 39.0 °F 89% 29.82 in 10.0 mi South 6.9 mph - 0.01 in   Overcast
5:01 AM 42.8 °F 38.0 °F 39.2 °F 87% 29.82 in 10.0 mi South 8.1 mph - N/A   Overcast
5:09 AM 42.8 °F 37.0 °F 39.2 °F 87% 29.82 in 10.0 mi South 10.4 mph 18.4 mph N/A   Overcast
5:53 AM 42.1 °F 37.7 °F 39.9 °F 92% 29.82 in 5.0 mi SSE 6.9 mph - N/A   Overcast
6:53 AM 43.0 °F 37.7 °F 41.0 °F 93% 29.83 in 10.0 mi South 9.2 mph - N/A   Overcast
7:48 AM 42.8 °F 38.0 °F 42.8 °F 100% 29.84 in 2.5 mi SSW 8.1 mph - 0.00 in Rain Light Rain
7:53 AM 43.0 °F 38.2 °F 42.1 °F 97% 29.84 in 2.5 mi SSW 8.1 mph - 0.00 in Rain Light Rain
8:25 AM 44.6 °F 40.2 °F 42.8 °F 93% 29.84 in 3.0 mi SSW 8.1 mph - 0.00 in   Overcast
8:45 AM 44.6 °F 40.7 °F 42.8 °F 93% 29.85 in 3.0 mi SSW 6.9 mph - 0.00 in   Overcast
8:53 AM 44.1 °F 40.1 °F 42.1 °F 93% 29.86 in 3.0 mi SW 6.9 mph - 0.00 in Rain Light Rain
9:10 AM 44.6 °F 39.7 °F 42.8 °F 93% 29.85 in 2.5 mi SW 9.2 mph - 0.00 in Rain Light Rain
9:27 AM 44.6 °F 38.4 °F 42.8 °F 93% 29.86 in 3.0 mi WSW 12.7 mph - 0.00 in   Overcast
9:53 AM 44.1 °F 37.7 °F 42.1 °F 93% 29.87 in 7.0 mi West 12.7 mph 19.6 mph 0.00 in   Overcast
10:00 AM 44.6 °F 38.8 °F 42.8 °F 93% 29.86 in 9.0 mi West 11.5 mph 19.6 mph N/A   Overcast
10:53 AM 44.1 °F 38.1 °F 39.9 °F 85% 29.88 in 10.0 mi West 11.5 mph - N/A   Overcast
11:45 AM 42.8 °F 37.0 °F 37.4 °F 81% 29.87 in 10.0 mi WNW 10.4 mph - N/A   Overcast
11:53 AM 42.1 °F 35.2 °F 37.9 °F 85% 29.88 in 10.0 mi WNW 12.7 mph 18.4 mph N/A   Overcast
12:53 PM 42.1 °F 34.9 °F 37.0 °F 82% 29.89 in 10.0 mi West 13.8 mph - N/A   Overcast
1:53 PM 41.0 °F 33.5 °F 36.0 °F 82% 29.89 in 10.0 mi NW 13.8 mph 18.4 mph N/A   Overcast
2:53 PM 39.0 °F 30.3 °F 34.0 °F 82% 29.93 in 10.0 mi NW 16.1 mph - N/A   Overcast
3:53 PM 39.0 °F 31.8 °F 34.0 °F 82% 29.95 in 10.0 mi NW 11.5 mph - N/A   Overcast
4:30 PM 39.2 °F 32.0 °F 33.8 °F 81% 29.97 in 10.0 mi NW 11.5 mph 18.4 mph N/A   Overcast
4:53 PM 39.0 °F 33.4 °F 34.0 °F 82% 29.98 in 10.0 mi NW 8.1 mph - N/A   Overcast
5:37 PM 39.2 °F 32.5 °F 33.8 °F 81% 29.99 in 10.0 mi NNW 10.4 mph - N/A   Overcast
5:53 PM 37.9 °F 31.5 °F 33.1 °F 83% 30.01 in 10.0 mi NNW 9.2 mph - N/A   Overcast
6:53 PM 37.9 °F 30.5 °F 32.0 °F 79% 30.03 in 10.0 mi NW 11.5 mph - N/A   Overcast
7:53 PM 37.0 °F 29.3 °F 32.0 °F 82% 30.05 in 10.0 mi NNW 11.5 mph - N/A   Overcast
8:53 PM 37.0 °F 29.3 °F 30.9 °F 79% 30.08 in 10.0 mi NW 11.5 mph - N/A   Overcast
9:53 PM 36.0 °F 28.5 °F 30.9 °F 82% 30.09 in 10.0 mi NNW 10.4 mph - N/A   Overcast
10:53 PM 36.0 °F 28.0 °F 30.0 °F 79% 30.10 in 10.0 mi NNW 11.5 mph - 0.01 in   Overcast
11:53 PM 35.1 °F 26.4 °F 28.9 °F 78% 30.12 in 10.0 mi NNW 12.7 mph - N/A   Overcast